Tracking 30466 objects as of 18-May-2025
HD Live streaming from Space Station
objects crossing your sky now

STARLINK-11685

Track STARLINK-11685 now!
10-day predictions
STARLINK-11685 is classified as:


NORAD ID: 63552
Int'l Code: 2025-075E
Perigee: 342.6 km
Apogee: 344.7 km
Inclination: 43.0 °
Period: 91.3 minutes
Semi major axis: 6714 km
RCS: Unknown
Launch date: April 13, 2025
Source: United States (US)
Launch site: AIR FORCE EASTERN TEST RANGE (AFETR)
Your satellite tracking list
Your tracking list is empty




NASA's NSSDC Master Catalog

Two Line Element Set (TLE):
1 63552U 25075E   25137.40217370  .00000573  00000-0  61542-5 0  9990
2 63552  42.9973 141.2271 0001577 248.8242 111.2459 15.77871710  6637
Source of the keplerian elements: AFSPC